User: anonymous   Login
Location: Unspecified
(0.0000°N, 0.0000°E)
Time: 17:45:23
(UTC+00:00)
Language:

OPTUS D3 - Orbit

View from above orbital plane
View from above orbital plane
View from above satellite
View from above satellite

Ground track
Ground track

The orbit data is extracted from the following two-line orbital elements,

1 35756U 09044B   15085.64967494 -.00000176  00000-0  00000+0 0  9995
2 35756 000.0658 005.9651 0003778 334.5373 233.1429 01.00271908 20516
Epoch (UTC): 26 March 2015 15:35:31
Eccentricity: 0.0003778
inclination: 0.0658°
perigee height: 35770 km
apogee height: 35802 km
right ascension of ascending node: 5.9651°
argument of perigee: 334.5373°
revolutions per day: 1.00271908
mean anomaly at epoch: 233.1429°
orbit number at epoch: 2051

The dashed part of the orbit path shows where the satellite is in the earth's shadow,  

DLR